Torna al catalogo

STARLINK-32680

AttivoComunicazioniVLEO
NORAD 62423·PAYLOAD·🇺🇸 United States

Lanciato Dec 23, 2024 da Cape Canaveral Space Force Station

Loading…

Prossimi Passaggi (prossime 24 ore)

TLE

AggiornatoSource: CelesTrak SupGP

Epoca: Sep 14, 2026, 22:21 UTC

1 62423C 24249Q   26257.93173611 -.00014632  00000+0 -53009-3 0  2575
2 62423  43.0019 325.5072 0001968 272.9695  92.2305 15.27578239    15

Traccia STARLINK-32680 in tempo reale con AllMySat

Download on the App Store